User: anonymous   Login
Location: Krasnoyarskiy
(51.1133°N, 71.6497°E)
Time: 16:19:08
(UTC+00:00)
Language:

COSMO-SKYMED 1 - Orbit

View from above orbital plane
View from above orbital plane
View from above satellite
View from above satellite

Ground track
Ground track

The orbit data is extracted from the following two-line orbital elements,

1 31598U 07023A   24105.13595957  .00000925  00000-0  12267-3 0  9991
2 31598  97.8868 289.2210 0001340  85.8084 274.3283 14.82171815911704
Epoch (UTC): 14 April 2024 03:15:46
Eccentricity: 0.0001340
inclination: 97.8868°
perigee height: 621 km
apogee height: 623 km
right ascension of ascending node: 289.2210°
argument of perigee: 85.8084°
revolutions per day: 14.82171815
mean anomaly at epoch: 274.3283°
orbit number at epoch: 91170

The dashed part of the orbit path shows where the satellite is in the earth's shadow,  

DLR